This demonstration page uses our WeatherBlox Daily Observations layout. Learn more.

Left ArrowRight Arrow

Hourly Observations for April 9, 2020

Temp ( °F °C ) Dew Point ( °F °C ) Humidity (%) Winds ( mph kmh ) Pressure ( in mb ) Visibility ( mi km ) Precip ( " mm )
12:15 am 00:15 Clear 38 3.1 28 -2.1 69 69 Calm 30.15 1021 10 16.0934 0 0
12:35 am 00:35 Clear 36 2.2 28 -2.1 74 74 WNW 5 7 30.16 1021 10 16.0934 0 0
12:55 am 00:55 Clear 35 1.7 28 -2.3 75 75 W 5 7 30.19 1022 10 16.0934 0 0
1:15 am 01:15 Clear 37 2.8 28 -2.1 70 70 WNW 5 7 30.17 1022 10 16.0934 0 0
1:35 am 01:35 Clear 36 2.2 28 -2.3 72 72 WNW 5 7 30.18 1022 10 16.0934 0 0
1:55 am 01:55 Clear 36 2.1 28 -2.5 72 72 WNW 5 7 30.18 1022 10 16.0934 0 0
2:15 am 02:15 Clear 34 1.1 27 -2.7 76 76 WNW 5 7 30.18 1022 10 16.0934 0 0
2:35 am 02:35 Clear 34 1.3 27 -2.9 74 74 W 5 7 30.18 1022 10 16.0934 0 0
2:55 am 02:55 Clear 35 1.5 27 -3 72 72 W 3 6 30.2 1023 10 16.0934 0 0
3:15 am 03:15 Clear 35 1.7 27 -3 71 71 WNW 3 6 30.21 1023 10 16.0934 0 0
3:35 am 03:35 Clear 35 1.6 26 -3.1 71 71 WNW 3 6 30.21 1023 10 16.0934 0 0
3:55 am 03:55 Clear 35 1.5 26 -3.2 71 71 NNW 7 11 30.21 1023 10 16.0934 0 0
4:15 am 04:15 Clear 37 2.9 25 -3.7 62 62 N 7 11 30.19 1022 10 16.0934 0 0
4:35 am 04:35 Clear 32 0.2 25 -4.1 73 73 N 10 17 30.19 1022 10 16.0934 0 0
4:55 am 04:55 Clear 34 1 25 -3.7 71 71 N 8 13 30.19 1022 10 16.0934 0 0
5:15 am 05:15 Clear 33 0.5 25 -4 72 72 N 8 13 30.18 1022 10 16.0934 0 0
5:35 am 05:35 Clear 33 0.8 25 -4 71 71 N 6 9 30.19 1022 10 16.0934 0 0
5:55 am 05:55 Clear 33 0.6 24 -4.2 71 71 NNW 3 6 30.19 1022 10 16.0934 0 0
6:15 am 06:15 Clear 32 0.1 25 -3.8 75 75 W 5 7 30.22 1024 10 16.0934 0 0
6:35 am 06:35 Clear 33 0.3 24 -4.4 71 71 WNW 5 7 30.22 1023 10 16.0934 0 0
6:55 am 06:55 Clear 32 -0.1 24 -4.2 74 74 WNW 5 7 30.25 1024 10 16.0934 0 0
7:15 am 07:15 Sunny 31 -0.3 25 -4.1 76 76 W 3 6 30.25 1024 10 16.0934 0 0
7:35 am 07:35 Sunny 31 -0.3 25 -4.1 76 76 W 5 7 30.26 1025 10 16.0934 0 0
7:55 am 07:55 Sunny 34 1 26 -3.5 72 72 W 7 11 30.25 1024 10 16.0934 0 0
8:15 am 08:15 Sunny 36 2 26 -3.3 68 68 WNW 6 9 30.25 1024 10 16.0934 0 0
8:35 am 08:35 Sunny 37 2.8 28 -2 71 71 W 6 9 30.25 1024 10 16.0934 0 0
8:55 am 08:55 Sunny 41 4.8 28 -2.5 60 60 WNW 6 9 30.23 1024 10 16.0934 0 0
9:15 am 09:15 Sunny 43 5.9 25 -3.9 50 50 W 6 9 30.2 1023 10 16.0934 0 0
9:35 am 09:35 Sunny 45 7.1 23 -5.1 42 42 W 7 11 30.19 1022 10 16.0934 0 0
9:55 am 09:55 Sunny 47 8.1 22 -5.5 38 38 W 9 15 30.18 1022 10 16.0934 0 0
10:15 am 10:15 Partly Cloudy 48 8.9 22 -5.3 37 37 WNW 10 17 30.17 1022 10 16.0934 0 0
10:35 am 10:35 Partly Cloudy 49 9.7 22 -5.3 35 35 NW 12 19 30.18 1022 10 16.0934 0 0
10:55 am 10:55 Mostly Cloudy 50 9.8 22 -5.3 34 34 WNW 14 22 30.17 1022 10 16.0934 0 0
11:15 am 11:15 Cloudy 50 9.8 22 -5.3 34 34 NNW 17 28 30.18 1022 10 16.0934 0 0
11:35 am 11:35 Cloudy 49 9.6 21 -6 33 33 NNW 14 22 30.2 1023 10 16.0934 0 0
11:55 am 11:55 Cloudy 49 9.6 22 -5.8 34 34 NW 15 24 30.2 1023 10 16.0934 0 0
12:15 pm 12:15 Cloudy 50 9.8 22 -5.3 34 34 NW 13 20 30.2 1023 10 16.0934 0 0
12:35 pm 12:35 Cloudy 53 11.5 24 -4.4 33 33 NNW 15 24 30.18 1022 10 16.0934 0 0
12:55 pm 12:55 Cloudy 51 10.8 23 -5.2 32 32 NNW 16 26 30.18 1022 10 16.0934 0 0
1:15 pm 13:15 Cloudy 52 11.2 23 -5.1 32 32 NNW 15 24 30.16 1021 10 16.0934 0 0
1:35 pm 13:35 Partly Cloudy 54 12 23 -5 30 30 WNW 15 24 30.14 1020 10 16.0934 0 0
1:55 pm 13:55 Sunny 55 12.5 23 -5 29 29 N 15 24 30.12 1020 10 16.0934 0 0
2:15 pm 14:15 Sunny 56 13.5 21 -6.1 25 25 NNW 14 22 30.1 1019 10 16.0934 0 0
2:35 pm 14:35 Sunny 56 13.6 19 -7.1 23 23 NNW 21 33 30.1 1019 10 16.0934 0 0
2:55 pm 14:55 Sunny 57 13.7 20 -6.9 23 23 NNW 21 33 30.09 1019 10 16.0934 0 0
3:15 pm 15:15 Sunny 56 13.5 17 -8.1 22 22 NNW 20 31 30.1 1019 10 16.0934 0 0
3:35 pm 15:35 Sunny 56 13.2 17 -8.5 21 21 N 20 31 30.09 1019 10 16.0934 0 0
3:55 pm 15:55 Sunny 55 13 17 -8.6 22 22 NNW 20 31 30.1 1019 10 16.0934 0 0
4:15 pm 16:15 Sunny 55 13 15 -9.3 20 20 N 15 24 30.1 1019 10 16.0934 0 0
4:35 pm 16:35 Sunny 56 13.2 13 -10.4 18 18 NNW 16 26 30.09 1019 10 16.0934 0 0
4:55 pm 16:55 Sunny 55 13 12 -11.3 17 17 NNW 17 28 30.1 1019 10 16.0934 0 0
5:15 pm 17:15 Sunny 55 12.8 10 -12.4 16 16 N 17 28 30.11 1020 10 16.0934 0 0
5:35 pm 17:35 Sunny 55 12.5 8 -13.3 15 15 N 15 24 30.1 1019 10 16.0934 0 0
5:55 pm 17:55 Sunny 55 12.6 8 -13.1 15 15 N 16 26 30.1 1019 10 16.0934 0 0
6:15 pm 18:15 Sunny 54 12 8 -13.3 16 16 N 14 22 30.12 1020 10 16.0934 0 0
6:35 pm 18:35 Sunny 53 11.5 9 -13 17 17 N 15 24 30.12 1020 10 16.0934 0 0
6:55 pm 18:55 Sunny 51 10.6 11 -11.4 20 20 NNE 18 30 30.13 1020 10 16.0934 0 0
7:15 pm 19:15 Sunny 49 9.6 12 -11.2 22 22 NNE 22 35 30.15 1021 10 16.0934 0 0
7:35 pm 19:35 Sunny 47 8.6 13 -10.6 25 25 NNE 18 30 30.16 1021 10 16.0934 0 0
7:55 pm 19:55 Sunny 46 7.5 13 -10.6 27 27 NNE 16 26 30.17 1022 10 16.0934 0 0
8:15 pm 20:15 Clear 43 6.2 13 -10.5 29 29 NNE 14 22 30.19 1022 10 16.0934 0 0
8:35 pm 20:35 Clear 42 5.5 14 -10 32 32 NNE 9 15 30.19 1022 10 16.0934 0 0
8:55 pm 20:55 Clear 41 4.8 15 -9.2 36 36 NNE 14 22 30.21 1023 10 16.0934 0 0
9:15 pm 21:15 Clear 39 3.7 17 -8.1 42 42 NE 13 20 30.23 1024 10 16.0934 0 0
9:35 pm 21:35 Clear 37 2.9 18 -7.7 46 46 NE 12 19 30.26 1025 10 16.0934 0 0
9:55 pm 21:55 Clear 37 2.6 18 -7.7 47 47 NE 17 28 30.26 1025 10 16.0934 0 0
10:15 pm 22:15 Clear 36 2.2 18 -7.8 48 48 NE 17 28 30.26 1025 10 16.0934 0 0
10:35 pm 22:35 Clear 35 1.8 18 -8 49 49 NE 18 30 30.27 1025 10 16.0934 0 0
10:55 pm 22:55 Clear 35 1.5 17 -8.5 48 48 NE 13 20 30.28 1025 10 16.0934 0 0
11:15 pm 23:15 Clear 33 0.6 16 -8.8 50 50 ENE 10 17 30.29 1026 10 16.0934 0 0
11:35 pm 23:35 Clear 32 0 17 -8.5 53 53 E 5 7 30.31 1026 10 16.0934 0 0
11:55 pm 23:55 Clear 31 -0.6 16 -8.8 54 54 ESE 3 6 30.31 1026 10 16.0934 0 0

Powered by AerisWeather